Regional Weather Roundup
Issued by NWS Sterling, VA

Home | Current Version | Previous Version | Text Only | Print | Product List | Glossary Off
Versions: 1 2 3 4 5 6 7 8 9 10 11 12 13 14 15 16 17 18 19 20 21 22 23 24 25 26 27 28 29 30 31 32 33 34 35 36 37 38 39 40 41 42 43 44 45 46 47 48 49 50

000
ASUS41 KLWX 131810
RWRLWX

REGIONAL WEATHER ROUNDUP
NATIONAL WEATHER SERVICE BALTIMORE MD/WASHINGTON DC
200 PM EDT SUN JUL 13 2014

Note: "FAIR" indicates few or no clouds below 12,000 feet
with no significant weather and/or obstructions to visibility.
 TC=TEMPERATURE CELSIUS

 * =Non NWS site. Station does not report precipitation (e.g. rain,
    snow, etc.), thunder, or fog.

DCZ001-MDZ009-015-VAZ040>042-051-053>054-131900-
WASHINGTON METRO

CITY           SKY/WX    TMP DP  RH WIND       PRES   REMARKS
WASHINGTON NAT PTSUNNY   91  71  51 S10       30.00F HX  97
DULLES         PTSUNNY   88  71  57 S13       30.00F HX  94
ANDREWS AFB    MOSUNNY   90  72  55 SW14      30.01F HX  96
FT BELVOIR     MOSUNNY   89  72  56 S10       30.01F HX  95
QUANTICO       MOSUNNY   89  73  59 SW10      30.01F HX  97
COLLEGE PARK*  SUNNY     90  72  55 S9        29.99F HX  96
LEESBURG*      PTSUNNY   88  75  66 S6        30.01F HX  97
MANASSAS*      MOSUNNY   84  72  65 SW7       30.01F
GAITHERSBURG*  CLOUDY    88  72  58 S3        30.05S HX  94

$$

MDZ006>007-011-014-131900-
BALTIMORE METRO

CITY           SKY/WX    TMP DP  RH WIND       PRES   REMARKS
BWI AIRPORT    PTSUNNY   91  68  46 SW8       29.99F HX  95
MD SCIENCE CTR   N/A     91  67  44 MISG      29.99F HX  94
MARTIN STATE   PTSUNNY   84  77  79 SE15      30.00F HX  94
ANNAPOLIS      SUNNY     89  72  56 S8        29.99F HX  96
FORT MEADE*    MOSUNNY   90  70  51 SW10      30.02F HX  95

$$

MDZ012-015-019>023-131900-
MARYLAND EASTERN SHORE

CITY           SKY/WX    TMP DP  RH WIND       PRES   REMARKS
OCEAN CITY     MOSUNNY   81  74  79 S9        30.07F
SALISBURY      MOSUNNY   91  68  46 S15G23    30.05F HX  95
BAY BRIDGE AP*   N/A     88  70  55 S12       30.01F HX  92
EASTON*        MOSUNNY   90  73  58 SW13G21   30.06F HX  98

$$

MDZ017>025-131900-
SOUTHERN MARYLAND

CITY           SKY/WX    TMP DP  RH WIND       PRES   REMARKS
PATUXENT RIVER PTSUNNY   87  72  60 S9G17     30.03F HX  93
ST INIGOES     MOSUNNY   88  73  61 S8        30.03F HX  95
LEONARDTOWN*   MOSUNNY   88  68  51 SW10G20   30.05S HX  91

$$

MDZ003>005-131900-
NORTH CENTRAL MARYLAND

CITY           SKY/WX    TMP DP  RH WIND       PRES   REMARKS
FREDERICK*     PTSUNNY   86  75  70 SW5       30.02F HX  95
HAGERSTOWN APT CLOUDY    82  68  62 S13       29.99F
WESTMINSTER*   CLOUDY    86  72  62 S9        30.02S HX  92

$$

MDZ501>502-131900-
WESTERN MARYLAND

CITY           SKY/WX    TMP DP  RH WIND       PRES   REMARKS
OAKLAND*       CLOUDY    75  59  57 SW9G18    30.11F
CUMBERLAND*    CLOUDY    86  70  58 S5        30.02F HX  90

$$

VAZ025>031-131900-
SHENANDOAH VALLEY

CITY           SKY/WX    TMP DP  RH WIND       PRES   REMARKS
WINCHESTER*    CLOUDY    82  68  61 SW6       30.02F
STAUNTON*      MOSUNNY   89  63  42 S8        30.07F

$$

WVZ021-048>050-054>055-131900-
EASTERN WEST VIRGINIA PANHANDLE

CITY           SKY/WX    TMP DP  RH WIND       PRES   REMARKS
MARTINSBURG    CLOUDY    83  68  60 S6        30.01F
PETERSBURG*    PTSUNNY   85  60  43 S5        30.02F

$$

VAZ036>039-050-131900-
CENTRAL FOOTHILLS

CITY           SKY/WX    TMP DP  RH WIND       PRES   REMARKS
CHARLOTTESVILL MOSUNNY   88  71  57 S13       30.04F HX  94
ORANGE*        PTSUNNY   90  70  51 S10G16    30.04F HX  95

$$

VAZ055>057-131900-
NORTH AND CENTRAL PIEDMONT

CITY           SKY/WX    TMP DP  RH WIND       PRES   REMARKS
FREDERICKSBRG* SUNNY     93  68  43 SW15G24   30.01F HX  97
STAFFORD*      SUNNY     90  70  51 SW5       30.05F HX  95

$$

NCZ024-NYZ072-PAZ021-071-VAZ022-071-131900-
OTHER REGIONAL OBSERVATIONS

CITY           SKY/WX    TMP DP  RH WIND       PRES   REMARKS
NEW YORK CITY  MOSUNNY   82  68  62 SE6       30.03F
PHILADELPHIA   PTSUNNY   89  68  49 SW14      29.99F HX  93
PITTSBURGH     CLOUDY    83  69  62 SW15      29.95F
ROANOKE        PTSUNNY   88  65  46 SW7       30.09F HX  90
RICHMOND       PTSUNNY   95  67  39 SW18G24   30.04F HX  99
RALEIGH        PTSUNNY   91  68  46 S7        30.10F HX  95

$$

ANZ530>537-131900-
MARINE OBSERVATIONS

STATION/POSITION TIME  TEMP    WIND        PRES
                       AIR SEA DIR/SP/G
                 (UTC) (F)     (DEG/KT/KT) (MB)
THOMAS PT LIGHT  1800   82 79  170/ 15/ 16 1016.3F
BALT KEY BRIDGE  1800  103     190/  8/ 10 1015.3F
COVE POINT       1800   86     220/ 10/ 15 1016.8F
LEWISETTA        1800   85 79  210/ 12/ 15 1016.9F
SOLOMONS ISLAND  1800      80                N/A
PINEY POINT      1800          220/ 15/ 17   N/A

$$




USA.gov is the U.S. government's official web portal to all federal, state and local government web resources and services.